Regional Weather Roundup
Issued by NWS

Home | Current Version | Previous Version | Text Only | Print | Product List | Glossary On
Versions: 1 2 3 4 5 6 7 8 9 10 11 12 13 14 15 16 17 18 19 20 21 22 23 24 25 26 27 28 29 30 31 32 33 34 35 36 37 38 39 40 41 42 43 44 45 46 47 48 49 50
000
ASUS43 KMKX 250259
RWRWI

WISCONSIN REGIONAL WEATHER ROUNDUP
NATIONAL WEATHER SERVICE MILWAUKEE/SULLIVAN WI
900 PM CST SAT FEB 24 2018

NOTE: "FAIR" INDICATES FEW OR NO CLOUDS BELOW 12,000 FEET WITH NO
SIGNIFICANT WEATHER AND/OR OBSTRUCTIONS TO VISIBILITY.

WIZ001-002-006>008-014>016-023>028-250400-
NORTHWEST WISCONSIN

CITY           SKY/WX    TMP DP  RH WIND       PRES   REMARKS
SUPERIOR ARPT  LGT SNOW  25  24  96 E14G22    29.59F WCI  13
ASHLAND        SNOW      25  24  96 NE9       29.58F VSB 1/2 WCI  15
HAYWARD        LGT SNOW  30  28  92 VRB3      29.54F VSB 1
SIREN          LGT SNOW  29  29  97 E3        29.55F
CUMBERLAND     SNOW      30  28  93 E5        29.54S VSB 1/4 WCI  25
RICE LAKE      SNOW      30  29  97 E5        29.56F VSB 1/4 WCI  25
CHETEK         LGT SNOW  29  29  99 E3        29.54F VSB 3/4
LADYSMITH      LGT SNOW  31  28  92 SE10      29.54F WCI  22
EAU CLAIRE     SNOW      31  30  96 SE8       29.53F VSB 1/2 WCI  23
MENOMONIE      SNOW      32  31  98 SE3       29.53F VSB 1/2
NEW RICHMOND   LGT SNOW  30  28  92 E5        29.53F VSB 3/4 WCI  25
OSCEOLA        LGT SNOW  30  30 100 E5        29.56F VSB 3/4 WCI  25
$$

WIZ003>005-009-010-017-018-250400-
NORTH CENTRAL WISCONSIN

CITY           SKY/WX    TMP DP  RH WIND       PRES   REMARKS
MANITOWISH WTR LGT SNOW  28  23  81 E17G26    29.53F WCI  16
ARBOR VITAE    LGT SNOW  31  26  83 E17G31    29.54F WCI  19
WOODRUFF       LGT SNOW  31  26  83 E17G31    29.54F WCI  19
RHINELANDER    LGT SNOW  28  25  88 E23G31    29.54F FOG     WCI  14
EAGLE RIVER    LGT SNOW  27  22  80 E16G24    29.55F WCI  15
LAND O LAKES   CLOUDY    29  21  73 E15G22    29.62F WCI  18
PHILLIPS       LGT SNOW  28  27  93 SE12G20   29.50F WCI  18
TOMAHAWK       LGT SNOW  28  25  87 E8        29.56F VSB 1   WCI  20
MEDFORD        LGT SNOW  28  26  91 E16G23    29.52F WCI  16
MERRILL        MIX PCPN  29  27  90 SE10G22   29.55F WCI  20
$$

WIZ029-030-035-036-043>047-250400-
CENTRAL WISCONSIN

CITY           SKY/WX    TMP DP  RH WIND       PRES   REMARKS
WAUSAU         FRZ RAIN  30  27  88 E18G30    29.52F WCI  18
MOSINEE        CLOUDY    30  28  93 E16G29    29.55F WCI  19
MARSHFIELD     FRZ RAIN  31  30  96 SE18G28   29.50F FOG     WCI  19
STEVENS POINT  MIX PCPN  29  29 100 E15       29.57F WCI  18
WAUPACA        LGT RAIN  33  31  90 E12       29.61F WCI  25
WAUTOMA        FRZ RAIN  32  30  93 E15       29.57F WCI  22
WISC RAPIDS    MIX PCPN  32  29  88 SE15G28   29.54F WCI  22
CAMP DOUGLAS   MIX PCPN  33  33  99 SE10      29.51F FOG     WCI  25
$$

WIZ011>013-019>022-031-037>040-048>050-250400-
NORTHEAST WISCONSIN

CITY           SKY/WX    TMP DP  RH WIND       PRES   REMARKS
ANTIGO         LGT SNOW  27  26  95 SE29G36   29.58F WCI  11
SHAWANO        DRIZZLE   33  31  91 E10       29.62F WCI  25
OCONTO         CLOUDY    32  29  89 E10       29.69F WCI  24
STURGEON BAY   LGT RAIN  34  30  85 E18G29    29.68F WCI  23
GREEN BAY      LGT RAIN  34  31  88 E18G28    29.65F WCI  23
MANITOWOC      LGT RAIN  33  32  96 SE17G25   29.67F WCI  22
APPLETON       LGT RAIN  34  32  93 E16       29.59F WCI  23
CLINTONVILLE   MIX PCPN  32  31  93 E14       29.60F WCI  22
OSHKOSH        CLOUDY    34  33  96 SE18G25   29.57F WCI  23
$$

WIZ032>034-041-042-053>061-250400-
SOUTHWEST WISCONSIN

CITY           SKY/WX    TMP DP  RH WIND       PRES   REMARKS
LA CROSSE      LGT SNOW  33  33 100 CALM      29.53F FOG
SPARTA         MIX PCPN  32  32  99 SE5       29.53F WCI  28
VIROQUA        CLOUDY    33  33 100 SE7       29.51S WCI  27
BOSCOBEL       LGT RAIN  36  35  96 CALM      29.54F FOG
PRAIRIE DU CHI LGT RAIN  35  34  96 CALM      29.54F
PLATTEVILLE    CLOUDY    36  36 100 E12       29.50F WCI  28
$$

WIZ056-057-062-063-064-067-068-250400-
SOUTH CENTRAL WISCONSIN

CITY           SKY/WX    TMP DP  RH WIND       PRES   REMARKS
REEDSBURG      RAIN      34  34 100 E3        29.51F
BARABOO/DELLS  DRIZZLE   35  33  95 SE13G20   29.52F WCI  26
LONE ROCK      RAIN      35  35 100 E8        29.52F FOG     WCI  29
MINERAL POINT  RAIN      36  36 100 SE14G21   29.50F WCI  27
MADISON        LGT RAIN  37  36  96 SE16G25   29.53F FOG     WCI  28
MIDDLETON      CLOUDY    38  37  99 SE15      29.53F WCI  29
WATERTOWN      RAIN      37  37 100 E17G24    29.58F WCI  27
MONROE         LGT RAIN  36  36 100 E14G21    29.51F VSB 3/4 WCI  27
JANESVILLE     RAIN      39  39 100 SE10G17   29.55F WCI  32
$$

WIZ051-052-058>065-066-070>072-250400-
SOUTHEAST WISCONSIN

CITY           SKY/WX    TMP DP  RH WIND       PRES   REMARKS
MILWAUKEE      CLOUDY    38  37  97 E10       29.62F FOG     WCI  31
WAUKESHA       CLOUDY    36  34  93 E14       29.63F FOG     WCI  27
MILWAUKEE/TIMM DRIZZLE   36  34  93 E8        29.65F WCI  29
RACINE         CLOUDY    38  36  92 SE13G20   29.63F WCI  30
BURLINGTON     CLOUDY    37  36  94 E12       29.60F FOG     WCI  30
KENOSHA        LGT RAIN  38  36  92 SE18G28   29.60F FOG     WCI  28
FOND DU LAC    LGT RAIN  36  32  85 SE24G36   29.57F WCI  24
SHEBOYGAN      LGT RAIN  34  34 100 E13       29.66F FOG     WCI  25
WEST BEND      LGT RAIN  34  34 100 E13       29.64F WCI  25
JUNEAU         LGT RAIN  35  34  96 E22G32    29.58F WCI  23
$$

LSZ147-162-250400-
LAKE SUPERIOR

STATION/POSITION TIME  TEMP    WIND        PRES    WAVE
                       AIR SEA DIR/SP/G            HT/PER
                 (UTC) (F)     (DEG/KT/KT) (MB)    (FT/S)
DEVILS ISLAND    0200   26      70/ 23/ 27 1006.8F
SAXON HARBOR     0240   29      50/  6/ 10 1002.0F
$$

LMZ867-665-643>646-250400-
LAKE MICHIGAN

STATION/POSITION TIME  TEMP    WIND        PRES    WAVE
                       AIR SEA DIR/SP/G            HT/PER
                 (UTC) (F)     (DEG/KT/KT) (MB)    (FT/S)
NORTHPORT PIER   0240   35                 1007.1F
KEWAUNEE LAKESHO 0230   34     110/ 17/ 21 1005.7F
SHEBOYGAN LAKESH 0200   35     110/ 17/ 20 1006.9F
PORT WASHINGTON  0240   36     100/  9/ 11 1005.8F
KENOSHA   LAKESH 0200   37     140/ 10/ 12 1004.7
$$

TC  - TEMPERATURE IN CELSIUS
VSB - VISIBILITY IN STATUTE MILES
WCI - WIND CHILL INDEX
HX  - HEAT INDEX





USA.gov is the U.S. government's official web portal to all federal, state and local government web resources and services.